Total_Precipitation_Accumulation
1.15 1.11 1.01 1.01 0.93 1.03 1.18 1.28 1.25 1.17 1.19 1.17 1.08 1.20 1.29 1.39 1.46 1.56 1.81 2.10 2.42 2.90 3.24 3.13 2.77 2.43 2.30 2.26 2.27 2.29 2.33 2.47 2.48 2.50 2.52 2.43 2.38 2.28 2.27 2.27 2.20 2.15 2.18
1.12 1.11 1.08 1.10 1.07 1.10 1.23 1.25 1.16 1.22 1.31 1.25 1.11 1.15 1.26 1.33 1.41 1.43 1.55 1.81 2.09 2.38 3.02 3.35 3.18 2.93 2.86 2.65 2.69 2.65 2.54 2.37 2.30 2.40 2.39 2.37 2.40 2.26 2.19 2.11 2.07 1.99 1.97
0.98 1.03 1.06 1.05 1.10 1.21 1.28 1.34 1.17 1.21 1.22 1.17 1.18 1.18 1.16 1.21 1.24 1.28 1.29 1.40 1.58 1.87 2.45 3.00 3.26 3.29 3.35 3.23 3.08 2.85 2.56 2.33 2.26 2.30 2.31 2.22 2.27 2.21 2.11 2.12 2.01 2.01 1.97
0.93 1.07 1.09 1.05 1.07 1.23 1.36 1.44 1.36 1.36 1.34 1.30 1.29 1.27 1.19 1.24 1.16 1.17 1.21 1.24 1.45 1.45 1.84 2.32 2.67 2.92 3.27 3.30 3.15 2.98 2.66 2.26 2.12 2.21 2.26 2.07 2.08 2.11 2.01 2.11 1.99 1.91 1.86
1.04 1.22 1.31 1.29 1.26 1.30 1.34 1.34 1.44 1.49 1.47 1.46 1.36 1.34 1.31 1.24 1.27 1.16 1.19 1.30 1.31 1.40 1.64 1.87 2.07 2.22 2.65 2.90 3.06 3.22 3.01 2.51 2.23 2.25 2.27 2.04 1.98 2.12 2.00 1.98 1.92 1.76 1.68
1.37 1.53 1.51 1.59 1.63 1.55 1.56 1.52 1.57 1.54 1.47 1.54 1.42 1.30 1.28 1.21 1.33 1.39 1.33 1.39 1.39 1.39 1.76 1.97 1.92 1.77 2.12 2.49 2.80 3.16 3.26 2.94 2.67 2.46 2.42 2.25 2.07 2.21 2.01 1.93 1.91 1.66 1.57
1.67 1.91 1.87 1.95 2.02 1.94 1.91 1.91 2.14 2.07 1.78 1.60 1.71 1.56 1.40 1.27 1.44 1.51 1.45 1.55 1.64 1.77 2.00 2.02 1.83 1.64 1.55 1.81 2.11 2.61 3.22 3.19 2.99 2.69 2.56 2.39 2.15 2.06 1.84 1.80 1.82 1.70 1.54
1.56 1.71 2.00 2.13 2.11 2.21 2.33 2.32 2.69 2.81 2.31 1.87 1.98 2.24 1.99 1.78 1.60 1.48 1.53 1.59 1.72 1.95 2.07 1.96 1.76 1.55 1.41 1.47 1.49 1.93 2.58 2.95 2.99 2.83 2.64 2.39 2.20 2.01 1.86 1.86 1.82 1.86 1.68
1.52 1.65 1.81 1.96 1.99 2.13 2.31 2.43 2.75 3.30 3.04 2.38 2.20 2.62 2.40 2.18 2.06 1.75 1.58 1.58 1.65 1.92 2.21 2.14 1.90 1.67 1.48 1.52 1.46 1.64 1.96 2.26 2.78 2.99 2.88 2.59 2.41 2.13 2.01 2.10 1.89 2.03 2.02
1.40 1.52 1.65 1.77 1.89 1.94 2.11 2.21 2.35 2.93 3.33 2.99 2.70 2.39 2.07 2.03 2.22 2.22 1.86 1.66 1.65 1.79 2.00 2.00 1.88 1.83 1.68 1.55 1.44 1.40 1.64 1.88 2.44 2.91 3.15 3.01 2.75 2.45 2.42 2.58 2.25 2.08 2.05
1.49 1.49 1.64 1.72 1.73 1.81 1.94 2.27 2.55 2.85 3.09 3.11 3.09 2.87 2.57 2.30 1.97 2.24 2.30 1.95 1.82 1.79 1.84 1.90 1.80 1.79 1.78 1.68 1.73 1.51 1.44 1.64 1.94 2.45 3.06 3.38 3.17 2.89 2.93 3.00 2.58 2.35 2.26
1.63 1.64 1.69 1.72 1.70 1.74 1.86 2.10 2.41 2.64 2.97 3.21 3.16 2.96 2.82 2.69 2.44 2.37 2.24 2.08 2.10 1.96 1.84 1.81 1.67 1.66 1.79 1.93 1.87 1.85 1.53 1.39 1.48 1.78 2.21 2.72 3.02 3.10 3.26 3.27 2.99 2.95 2.78
1.56 1.59 1.65 1.78 1.86 1.91 2.02 2.20 2.37 2.31 2.51 2.93 2.97 2.83 2.76 2.58 2.51 2.57 2.50 2.19 2.05 1.80 1.70 1.67 1.55 1.62 1.61 1.66 1.89 2.05 1.62 1.33 1.19 1.46 1.65 1.83 2.13 2.57 3.07 3.33 3.35 3.35 3.20
1.49 1.43 1.47 1.57 1.70 1.89 1.95 2.02 2.08 2.04 2.14 2.40 2.51 2.69 2.81 2.60 2.49 2.39 2.37 2.41 2.18 1.90 1.74 1.60 1.45 1.47 1.47 1.51 1.75 1.89 1.55 1.36 1.05 1.06 1.20 1.41 1.58 1.82 2.21 2.69 3.11 3.28 3.35
1.22 1.14 1.14 1.22 1.30 1.39 1.49 1.64 1.75 1.86 1.92 2.05 2.18 2.32 2.49 2.61 2.56 2.39 2.37 2.34 2.31 2.11 1.90 1.75 1.57 1.37 1.44 1.55 1.78 1.57 1.48 1.45 1.20 1.05 1.00 1.11 1.30 1.41 1.58 1.77 2.06 2.43 2.72
1.17 1.08 1.03 1.00 1.00 0.96 1.00 1.20 1.41 1.53 1.64 1.81 1.99 2.12 2.18 2.25 2.44 2.44 2.31 2.30 2.23 2.11 1.95 1.73 1.62 1.46 1.58 1.52 1.70 1.51 1.53 1.60 1.30 1.15 1.03 1.01 1.08 1.07 1.06 1.14 1.26 1.45 1.84
1.18 1.14 1.04 0.98 1.07 1.06 1.00 1.07 1.14 1.21 1.29 1.45 1.60 1.73 1.88 2.14 2.44 2.49 2.46 2.35 2.27 2.16 1.92 1.72 1.53 1.42 1.68 1.78 1.71 1.60 1.58 1.54 1.31 1.22 1.08 0.98 0.97 0.97 0.93 0.88 0.94 1.07 1.28
0.82 0.92 1.01 0.95 0.92 0.95 0.96 1.02 1.04 1.09 1.14 1.26 1.38 1.50 1.68 1.97 2.32 2.54 2.63 2.52 2.38 2.27 2.12 1.98 1.65 1.40 1.48 1.80 1.92 1.86 1.68 1.53 1.37 1.30 1.13 1.01 0.96 0.90 0.87 0.86 0.85 0.88 0.94
0.66 0.69 0.78 0.78 0.86 0.95 0.97 1.00 1.00 1.04 1.09 1.18 1.33 1.39 1.45 1.65 1.85 2.05 2.24 2.38 2.37 2.35 2.33 2.09 1.80 1.53 1.46 1.58 1.81 1.82 1.77 1.77 1.53 1.45 1.42 1.27 1.12 1.00 0.92 0.85 0.84 0.85 0.85
0.74 0.77 0.87 0.89 0.84 0.83 0.88 0.98 1.02 0.99 0.99 1.02 1.09 1.19 1.28 1.34 1.51 1.66 1.76 1.98 2.20 2.44 2.50 2.34 2.08 1.76 1.64 1.52 1.60 1.77 1.84 1.79 1.72 1.54 1.50 1.37 1.35 1.27 1.14 0.99 0.87 0.82 0.85
0.82 0.82 0.90 0.99 1.03 0.99 0.95 1.01 0.99 0.99 1.00 0.98 1.01 1.01 1.08 1.12 1.20 1.37 1.41 1.64 1.97 2.25 2.34 2.41 2.27 1.96 1.70 1.53 1.32 1.44 1.70 1.92 1.91 1.84 1.83 1.59 1.45 1.30 1.21 1.17 1.10 0.97 0.87
0.71 0.69 0.71 0.76 0.84 0.91 1.17 1.09 0.90 0.84 0.91 0.96 1.00 0.99 1.02 0.98 0.95 1.02 1.15 1.27 1.55 1.78 1.93 2.01 2.02 1.85 1.64 1.52 1.48 1.45 1.53 1.66 1.72 1.62 1.66 1.74 1.66 1.51 1.40 1.27 1.29 1.32 1.22
0.60 0.57 0.56 0.54 0.59 0.78 0.90 0.73 0.70 0.71 0.84 0.96 1.04 1.08 1.04 0.97 1.00 1.01 1.03 1.03 1.08 1.26 1.49 1.70 1.72 1.62 1.69 1.60 1.54 1.44 1.45 1.45 1.46 1.57 1.64 1.72 1.70 1.59 1.51 1.49 1.51 1.39 1.32
0.51 0.49 0.54 0.61 0.62 0.67 0.75 0.62 0.59 0.66 0.85 0.98 0.98 0.95 1.04 1.06 1.09 1.14 1.07 1.11 1.03 1.01 1.11 1.15 1.29 1.51 1.67 1.84 1.82 1.72 1.72 1.65 1.56 1.67 1.69 1.66 1.56 1.49 1.40 1.37 1.43 1.29 1.18
0.58 0.56 0.66 0.73 0.67 0.63 0.70 0.66 0.68 0.79 0.92 1.00 0.96 0.97 1.06 1.11 1.25 1.29 1.19 1.24 1.19 1.16 1.14 1.24 1.33 1.45 1.55 1.66 1.81 1.84 1.80 1.77 1.64 1.58 1.57 1.52 1.42 1.44 1.42 1.30 1.22 1.22 1.11
0.53 0.59 0.60 0.56 0.56 0.64 0.76 0.71 0.78 0.92 1.04 1.15 1.11 1.11 1.33 1.28 1.27 1.20 1.14 1.29 1.26 1.13 1.06 1.10 1.16 1.24 1.29 1.40 1.54 1.58 1.72 1.80 1.71 1.57 1.37 1.33 1.33 1.37 1.42 1.30 1.17 1.09 1.05